Time,TemperatureF,DewpointF,PressureIn,WindDirection,WindDirectionDegrees,WindSpeedMPH,WindSpeedGustMPH,Humidity,HourlyPrecipIn,Conditions,Clouds,dailyrainin,SoftwareType,DateUTC
2013-08-24 00:01:00,53.6,45.9,30.22,WSW,248,1.2,2.0,75,0.00,,,0.00,WUHU216HW,2013-08-24 04:01:00,
2013-08-24 00:02:00,53.6,46.3,30.22,WSW,248,1.6,2.0,76,0.00,,,0.00,WUHU216HW,2013-08-24 04:02:00,
2013-08-24 00:07:00,53.3,45.9,30.22,WSW,258,2.0,2.2,76,0.00,,,0.00,WUHU216HW,2013-08-24 04:07:00,
2013-08-24 00:11:00,53.3,45.9,30.22,WSW,248,1.6,2.2,76,0.00,,,0.00,WUHU216HW,2013-08-24 04:11:00,
2013-08-24 00:16:00,53.1,45.7,30.22,WSW,248,1.8,1.8,76,0.00,,,0.00,WUHU216HW,2013-08-24 04:16:00,
2013-08-24 00:21:00,52.6,45.9,30.22,SW,225,1.1,2.0,78,0.00,,,0.00,WUHU216HW,2013-08-24 04:21:00,
2013-08-24 00:26:00,52.2,45.5,30.22,SW,225,1.1,2.0,78,0.00,,,0.00,WUHU216HW,2013-08-24 04:26:00,
2013-08-24 00:31:00,52.0,45.4,30.22,WSW,248,2.0,2.0,78,0.00,,,0.00,WUHU216HW,2013-08-24 04:31:00,
2013-08-24 00:36:00,51.8,45.5,30.22,SW,225,2.2,2.2,79,0.00,,,0.00,WUHU216HW,2013-08-24 04:36:00,
2013-08-24 00:41:00,51.5,44.8,30.22,SW,236,1.7,2.7,78,0.00,,,0.00,WUHU216HW,2013-08-24 04:41:00,
2013-08-24 00:46:00,51.3,45.0,30.22,SW,225,1.3,2.7,79,0.00,,,0.00,WUHU216HW,2013-08-24 04:46:00,
2013-08-24 00:51:00,51.1,44.8,30.22,West,259,1.9,2.5,79,0.00,,,0.00,WUHU216HW,2013-08-24 04:51:00,
2013-08-24 00:56:00,51.1,44.8,30.22,WSW,248,2.7,3.8,79,0.00,,,0.00,WUHU216HW,2013-08-24 04:56:00,
2013-08-24 01:01:00,50.9,44.6,30.22,WSW,248,3.1,3.8,79,0.00,,,0.00,WUHU216HW,2013-08-24 05:01:00,
2013-08-24 01:06:00,50.8,44.5,30.23,West,270,2.5,3.1,79,0.00,,,0.00,WUHU216HW,2013-08-24 05:06:00,
2013-08-24 01:11:00,50.8,44.8,30.23,SW,232,0.6,2.5,80,0.00,,,0.00,WUHU216HW,2013-08-24 05:11:00,
2013-08-24 01:16:00,50.6,44.3,30.23,West,270,1.1,3.6,79,0.00,,,0.00,WUHU216HW,2013-08-24 05:16:00,
2013-08-24 01:21:00,50.6,44.3,30.23,WSW,248,0.8,3.6,79,0.00,,,0.00,WUHU216HW,2013-08-24 05:21:00,
2013-08-24 01:26:00,50.4,44.5,30.23,WSW,248,2.7,3.4,80,0.00,,,0.00,WUHU216HW,2013-08-24 05:26:00,
2013-08-24 01:31:00,50.4,44.5,30.23,WSW,248,1.7,3.4,80,0.00,,,0.00,WUHU216HW,2013-08-24 05:31:00,
2013-08-24 01:36:00,50.2,44.3,30.23,West,270,1.6,2.7,80,0.00,,,0.00,WUHU216HW,2013-08-24 05:36:00,
2013-08-24 01:41:00,50.2,44.3,30.23,WSW,248,1.8,1.8,80,0.00,,,0.00,WUHU216HW,2013-08-24 05:41:00,
2013-08-24 01:46:00,50.2,44.3,30.22,WSW,248,0.6,1.8,80,0.00,,,0.00,WUHU216HW,2013-08-24 05:46:00,
2013-08-24 01:51:00,50.0,44.1,30.23,WSW,248,1.1,2.0,80,0.00,,,0.00,WUHU216HW,2013-08-24 05:51:00,
2013-08-24 01:56:00,49.9,43.9,30.23,WSW,248,1.8,3.1,80,0.00,,,0.00,WUHU216HW,2013-08-24 05:56:00,
2013-08-24 02:01:00,49.7,43.7,30.23,WSW,248,1.6,3.1,80,0.00,,,0.00,WUHU216HW,2013-08-24 06:01:00,
2013-08-24 02:06:00,49.7,43.7,30.23,SW,225,1.5,2.9,80,0.00,,,0.00,WUHU216HW,2013-08-24 06:06:00,
2013-08-24 02:11:00,49.7,43.7,30.22,SSW,203,1.8,2.2,80,0.00,,,0.00,WUHU216HW,2013-08-24 06:11:00,
2013-08-24 02:16:00,49.5,43.6,30.22,West,279,1.8,3.1,80,0.00,,,0.00,WUHU216HW,2013-08-24 06:16:00,
2013-08-24 02:21:00,49.3,43.7,30.23,SW,225,1.1,3.1,81,0.00,,,0.00,WUHU216HW,2013-08-24 06:21:00,
2013-08-24 02:26:00,49.3,43.7,30.23,WNW,293,1.3,1.8,81,0.00,,,0.00,WUHU216HW,2013-08-24 06:26:00,
2013-08-24 02:31:00,49.1,43.5,30.23,SSE,158,1.1,1.8,81,0.00,,,0.00,WUHU216HW,2013-08-24 06:31:00,
2013-08-24 02:36:00,49.0,43.4,30.23,West,270,1.3,1.8,81,0.00,,,0.00,WUHU216HW,2013-08-24 06:36:00,
2013-08-24 02:41:00,48.8,43.2,30.24,WSW,248,2.5,2.5,81,0.00,,,0.00,WUHU216HW,2013-08-24 06:41:00,
2013-08-24 02:46:00,48.8,43.2,30.24,WSW,248,1.8,2.5,81,0.00,,,0.00,WUHU216HW,2013-08-24 06:46:00,
2013-08-24 02:51:00,49.0,43.4,30.24,West,270,1.8,2.5,81,0.00,,,0.00,WUHU216HW,2013-08-24 06:51:00,
2013-08-24 02:56:00,49.0,43.4,30.24,WSW,248,1.3,2.2,81,0.00,,,0.00,WUHU216HW,2013-08-24 06:56:00,
2013-08-24 03:01:00,49.1,43.5,30.24,WSW,248,1.3,1.3,81,0.00,,,0.00,WUHU216HW,2013-08-24 07:01:00,
2013-08-24 03:06:00,49.3,43.7,30.24,WSW,248,0.4,1.3,81,0.00,,,0.00,WUHU216HW,2013-08-24 07:06:00,
2013-08-24 03:11:00,49.3,43.7,30.25,West,270,1.1,1.1,81,0.00,,,0.00,WUHU216HW,2013-08-24 07:11:00,
2013-08-24 03:16:00,49.1,43.5,30.25,West,270,0.9,1.1,81,0.00,,,0.00,WUHU216HW,2013-08-24 07:16:00,
2013-08-24 03:21:00,49.1,43.5,30.25,West,270,0.2,1.1,81,0.00,,,0.00,WUHU216HW,2013-08-24 07:21:00,
2013-08-24 03:26:00,49.1,43.5,30.25,WSW,248,1.1,1.1,81,0.00,,,0.00,WUHU216HW,2013-08-24 07:26:00,
2013-08-24 03:31:00,49.1,43.5,30.25,SW,225,0.4,1.1,81,0.00,,,0.00,WUHU216HW,2013-08-24 07:31:00,
2013-08-24 03:41:00,49.0,43.4,30.25,WSW,248,0.0,0.7,81,0.00,,,0.00,WUHU216HW,2013-08-24 07:41:00,
2013-08-24 03:46:00,49.0,43.4,30.25,West,270,1.0,1.6,81,0.00,,,0.00,WUHU216HW,2013-08-24 07:46:00,
2013-08-24 03:51:00,48.8,43.2,30.26,SSW,203,0.2,2.7,81,0.00,,,0.00,WUHU216HW,2013-08-24 07:51:00,
2013-08-24 03:56:00,48.8,43.2,30.26,West,270,1.6,2.7,81,0.00,,,0.00,WUHU216HW,2013-08-24 07:56:00,
2013-08-24 04:01:00,48.8,43.2,30.26,WSW,248,0.8,1.6,81,0.00,,,0.00,WUHU216HW,2013-08-24 08:01:00,
2013-08-24 04:06:00,48.8,43.2,30.26,WSW,248,0.4,1.1,81,0.00,,,0.00,WUHU216HW,2013-08-24 08:06:00,
2013-08-24 04:11:00,48.8,43.2,30.27,SW,216,1.1,1.3,81,0.00,,,0.00,WUHU216HW,2013-08-24 08:11:00,
2013-08-24 04:16:00,48.8,43.2,30.27,WSW,248,1.2,1.8,81,0.00,,,0.00,WUHU216HW,2013-08-24 08:16:00,
2013-08-24 04:21:00,48.6,43.0,30.27,SW,225,1.8,2.0,81,0.00,,,0.00,WUHU216HW,2013-08-24 08:21:00,
2013-08-24 04:26:00,48.6,43.0,30.27,WSW,248,1.0,2.0,81,0.00,,,0.00,WUHU216HW,2013-08-24 08:26:00,
2013-08-24 04:31:00,48.6,43.0,30.27,WSW,254,0.6,1.1,81,0.00,,,0.00,WUHU216HW,2013-08-24 08:31:00,
2013-08-24 04:36:00,48.4,42.9,30.27,West,264,0.6,1.1,81,0.00,,,0.00,WUHU216HW,2013-08-24 08:36:00,
2013-08-24 04:41:00,48.2,42.3,30.28,SSW,203,1.1,2.0,80,0.00,,,0.00,WUHU216HW,2013-08-24 08:41:00,
2013-08-24 04:45:00,48.1,42.1,30.28,WSW,248,0.4,2.0,80,0.00,,,0.00,WUHU216HW,2013-08-24 08:45:00,
2013-08-24 04:50:00,48.1,42.1,30.28,West,270,0.7,1.8,80,0.00,,,0.00,WUHU216HW,2013-08-24 08:50:00,
2013-08-24 04:55:00,47.9,41.9,30.28,WSW,248,1.8,1.8,80,0.00,,,0.00,WUHU216HW,2013-08-24 08:55:00,
2013-08-24 05:00:00,47.9,42.3,30.28,SW,225,0.7,1.8,81,0.00,,,0.00,WUHU216HW,2013-08-24 09:00:00,
2013-08-24 05:05:00,47.7,41.9,30.28,WSW,248,2.0,2.0,80,0.00,,,0.00,WUHU216HW,2013-08-24 09:05:00,
2013-08-24 05:10:00,47.7,42.1,30.28,WNW,293,1.1,2.0,81,0.00,,,0.00,WUHU216HW,2013-08-24 09:10:00,
2013-08-24 05:15:00,47.7,42.1,30.28,WSW,248,1.8,1.8,81,0.00,,,0.00,WUHU216HW,2013-08-24 09:15:00,
2013-08-24 05:20:00,47.5,41.9,30.29,WSW,254,1.1,2.0,81,0.00,,,0.00,WUHU216HW,2013-08-24 09:20:00,
2013-08-24 05:25:00,47.5,41.9,30.29,SW,219,0.6,2.9,81,0.00,,,0.00,WUHU216HW,2013-08-24 09:25:00,
2013-08-24 05:30:00,47.2,41.7,30.29,WNW,293,0.9,2.9,81,0.00,,,0.00,WUHU216HW,2013-08-24 09:30:00,
2013-08-24 05:35:00,47.2,41.7,30.29,WSW,256,1.5,1.8,81,0.00,,,0.00,WUHU216HW,2013-08-24 09:35:00,
2013-08-24 05:40:00,47.0,41.5,30.30,SW,225,1.1,1.8,81,0.00,,,0.00,WUHU216HW,2013-08-24 09:40:00,
2013-08-24 05:45:00,46.8,41.3,30.29,WSW,248,2.0,2.0,81,0.00,,,0.00,WUHU216HW,2013-08-24 09:45:00,
2013-08-24 05:50:00,46.6,41.1,30.30,SSW,203,0.4,2.0,81,0.00,,,0.00,WUHU216HW,2013-08-24 09:50:00,
2013-08-24 05:55:00,46.6,41.1,30.30,WSW,248,1.8,1.8,81,0.00,,,0.00,WUHU216HW,2013-08-24 09:55:00,
2013-08-24 06:00:00,46.6,41.1,30.30,WSW,248,1.3,1.8,81,0.00,,,0.00,WUHU216HW,2013-08-24 10:00:00,
2013-08-24 06:05:00,46.4,41.0,30.31,WSW,248,0.7,2.2,81,0.00,,,0.00,WUHU216HW,2013-08-24 10:05:00,
2013-08-24 06:10:00,46.4,41.0,30.31,SW,225,1.1,2.2,81,0.00,,,0.00,WUHU216HW,2013-08-24 10:10:00,
2013-08-24 06:15:00,46.4,41.0,30.31,SW,225,1.3,2.2,81,0.00,,,0.00,WUHU216HW,2013-08-24 10:15:00,
2013-08-24 06:20:00,46.4,41.0,30.31,WSW,248,1.6,2.2,81,0.00,,,0.00,WUHU216HW,2013-08-24 10:20:00,
2013-08-24 06:25:00,46.4,41.0,30.31,WSW,242,0.8,2.0,81,0.00,,,0.00,WUHU216HW,2013-08-24 10:25:00,
2013-08-24 06:30:00,46.4,41.0,30.31,SE,136,1.1,2.0,81,0.00,,,0.00,WUHU216HW,2013-08-24 10:30:00,
2013-08-24 06:35:00,46.4,41.0,30.32,WSW,248,0.4,1.6,81,0.00,,,0.00,WUHU216HW,2013-08-24 10:35:00,
2013-08-24 06:40:00,46.3,40.8,30.32,WSW,248,1.1,1.1,81,0.00,,,0.00,WUHU216HW,2013-08-24 10:40:00,
2013-08-24 06:45:00,46.3,40.8,30.32,WSW,248,0.4,1.8,81,0.00,,,0.00,WUHU216HW,2013-08-24 10:45:00,
2013-08-24 06:50:00,46.3,40.8,30.32,WSW,248,0.6,1.8,81,0.00,,,0.00,WUHU216HW,2013-08-24 10:50:00,
2013-08-24 06:55:00,46.4,41.0,30.33,WSW,248,0.4,1.1,81,0.00,,,0.00,WUHU216HW,2013-08-24 10:55:00,
2013-08-24 07:00:00,46.4,41.0,30.33,SW,225,0.9,1.1,81,0.00,,,0.00,WUHU216HW,2013-08-24 11:00:00,
2013-08-24 07:05:00,46.4,41.0,30.33,WSW,248,1.1,1.1,81,0.00,,,0.00,WUHU216HW,2013-08-24 11:05:00,
2013-08-24 07:10:00,46.4,41.0,30.33,WSW,248,0.0,1.1,81,0.00,,,0.00,WUHU216HW,2013-08-24 11:10:00,
2013-08-24 07:15:00,46.4,41.0,30.33,WSW,248,0.2,0.9,81,0.00,,,0.00,WUHU216HW,2013-08-24 11:15:00,
2013-08-24 07:20:00,46.4,41.0,30.33,West,270,1.1,1.3,81,0.00,,,0.00,WUHU216HW,2013-08-24 11:20:00,
2013-08-24 07:25:00,46.6,41.1,30.33,South,180,1.1,1.3,81,0.00,,,0.00,WUHU216HW,2013-08-24 11:25:00,
2013-08-24 07:30:00,46.8,41.6,30.33,SSE,158,0.4,1.1,82,0.00,,,0.00,WUHU216HW,2013-08-24 11:30:00,
2013-08-24 07:35:00,47.0,41.8,30.34,SW,225,0.0,1.3,82,0.00,,,0.00,WUHU216HW,2013-08-24 11:35:00,
2013-08-24 07:40:00,47.2,41.7,30.34,WSW,248,0.0,1.3,81,0.00,,,0.00,WUHU216HW,2013-08-24 11:40:00,
2013-08-24 07:45:00,47.3,42.1,30.34,WSW,248,0.0,0.0,82,0.00,,,0.00,WUHU216HW,2013-08-24 11:45:00,
2013-08-24 07:50:00,47.5,41.9,30.34,SW,225,0.0,1.1,81,0.00,,,0.00,WUHU216HW,2013-08-24 11:50:00,
2013-08-24 07:55:00,47.7,42.5,30.34,SW,225,0.4,1.1,82,0.00,,,0.00,WUHU216HW,2013-08-24 11:55:00,
2013-08-24 08:00:00,47.9,42.7,30.34,SW,225,0.2,0.4,82,0.00,,,0.00,WUHU216HW,2013-08-24 12:00:00,
2013-08-24 08:05:00,48.1,42.5,30.35,SW,225,0.0,0.7,81,0.00,,,0.00,WUHU216HW,2013-08-24 12:05:00,
2013-08-24 08:10:00,48.2,42.7,30.35,SW,225,0.4,0.7,81,0.00,,,0.00,WUHU216HW,2013-08-24 12:10:00,
2013-08-24 08:15:00,48.6,43.7,30.35,SW,225,0.0,0.4,83,0.00,,,0.00,WUHU216HW,2013-08-24 12:15:00,
2013-08-24 08:20:00,49.0,43.7,30.35,SW,225,0.0,0.0,82,0.00,,,0.00,WUHU216HW,2013-08-24 12:20:00,
2013-08-24 08:25:00,49.3,44.0,30.35,SW,225,0.0,0.4,82,0.00,,,0.00,WUHU216HW,2013-08-24 12:25:00,
2013-08-24 08:30:00,49.5,44.2,30.35,SW,225,0.0,0.4,82,0.00,,,0.00,WUHU216HW,2013-08-24 12:30:00,
2013-08-24 08:35:00,49.7,44.4,30.35,SW,225,0.0,0.0,82,0.00,,,0.00,WUHU216HW,2013-08-24 12:35:00,
2013-08-24 08:40:00,50.0,44.7,30.35,SW,225,0.0,0.0,82,0.00,,,0.00,WUHU216HW,2013-08-24 12:40:00,
2013-08-24 08:45:00,50.4,45.1,30.35,SW,225,0.0,0.0,82,0.00,,,0.00,WUHU216HW,2013-08-24 12:45:00,
2013-08-24 08:50:00,50.6,45.3,30.35,SW,225,0.0,0.0,82,0.00,,,0.00,WUHU216HW,2013-08-24 12:50:00,
2013-08-24 08:55:00,51.1,45.8,30.35,SW,225,0.0,0.0,82,0.00,,,0.00,WUHU216HW,2013-08-24 12:55:00,
2013-08-24 09:00:00,51.5,46.2,30.35,SW,225,0.0,0.4,82,0.00,,,0.00,WUHU216HW,2013-08-24 13:00:00,
2013-08-24 09:05:00,51.7,46.4,30.35,SW,225,0.0,0.4,82,0.00,,,0.00,WUHU216HW,2013-08-24 13:05:00,
2013-08-24 09:10:00,52.2,46.9,30.36,SW,225,0.0,0.2,82,0.00,,,0.00,WUHU216HW,2013-08-24 13:10:00,
2013-08-24 09:15:00,52.6,46.9,30.36,SW,225,0.9,0.9,81,0.00,,,0.00,WUHU216HW,2013-08-24 13:15:00,
2013-08-24 09:20:00,52.9,47.3,30.35,SW,225,0.4,0.9,81,0.00,,,0.00,WUHU216HW,2013-08-24 13:20:00,
2013-08-24 09:25:00,53.3,47.6,30.35,SW,225,0.4,1.1,81,0.00,,,0.00,WUHU216HW,2013-08-24 13:25:00,
2013-08-24 09:30:00,53.6,48.0,30.35,SW,225,0.4,1.1,81,0.00,,,0.00,WUHU216HW,2013-08-24 13:30:00,
2013-08-24 09:35:00,54.0,48.1,30.35,SW,225,0.2,0.9,80,0.00,,,0.00,WUHU216HW,2013-08-24 13:35:00,
2013-08-24 09:40:00,54.4,48.3,30.35,SW,225,0.0,0.9,80,0.00,,,0.00,WUHU216HW,2013-08-24 13:40:00,
2013-08-24 09:45:00,54.7,48.7,30.35,SE,135,0.2,0.9,80,0.00,,,0.00,WUHU216HW,2013-08-24 13:45:00,
2013-08-24 09:50:00,55.1,49.0,30.35,SW,225,0.9,1.1,80,0.00,,,0.00,WUHU216HW,2013-08-24 13:50:00,
2013-08-24 09:55:00,55.6,49.9,30.35,SE,135,0.0,1.1,81,0.00,,,0.00,WUHU216HW,2013-08-24 13:55:00,
2013-08-24 10:00:00,56.0,49.9,30.36,SE,135,0.0,1.1,80,0.00,,,0.00,WUHU216HW,2013-08-24 14:00:00,
2013-08-24 10:05:00,56.5,50.4,30.35,SSE,158,1.1,1.6,80,0.00,,,0.00,WUHU216HW,2013-08-24 14:05:00,
2013-08-24 10:10:00,57.1,50.6,30.35,SE,135,0.0,1.6,79,0.00,,,0.00,WUHU216HW,2013-08-24 14:10:00,
2013-08-24 10:15:00,57.6,50.8,30.35,SE,135,0.2,0.9,78,0.00,,,0.00,WUHU216HW,2013-08-24 14:15:00,
2013-08-24 10:20:00,58.3,51.1,30.36,NE,45,0.4,1.8,77,0.00,,,0.00,WUHU216HW,2013-08-24 14:20:00,
2013-08-24 10:25:00,58.7,51.5,30.35,NE,45,0.8,2.7,77,0.00,,,0.00,WUHU216HW,2013-08-24 14:25:00,
2013-08-24 10:30:00,59.2,51.7,30.35,NE,45,0.0,2.7,76,0.00,,,0.00,WUHU216HW,2013-08-24 14:30:00,
2013-08-24 10:35:00,59.8,52.2,30.35,NE,45,0.0,0.0,76,0.00,,,0.00,WUHU216HW,2013-08-24 14:35:00,
2013-08-24 10:40:00,60.1,52.2,30.35,NE,45,0.0,0.2,75,0.00,,,0.00,WUHU216HW,2013-08-24 14:40:00,
2013-08-24 10:45:00,60.5,51.8,30.35,SSE,158,0.0,0.4,73,0.00,,,0.00,WUHU216HW,2013-08-24 14:45:00,
2013-08-24 10:50:00,61.2,52.6,30.35,NNW,338,0.4,0.4,73,0.00,,,0.00,WUHU216HW,2013-08-24 14:50:00,
2013-08-24 10:55:00,61.7,52.7,30.35,North,0,1.1,1.1,72,0.00,,,0.00,WUHU216HW,2013-08-24 14:55:00,
2013-08-24 11:00:00,61.9,52.8,30.35,SSE,158,0.4,1.8,72,0.00,,,0.00,WUHU216HW,2013-08-24 15:00:00,
2013-08-24 11:05:00,62.5,53.3,30.35,SE,135,0.4,1.8,72,0.00,,,0.00,WUHU216HW,2013-08-24 15:05:00,
2013-08-24 11:10:00,62.8,52.9,30.35,SE,135,0.0,0.4,70,0.00,,,0.00,WUHU216HW,2013-08-24 15:10:00,
2013-08-24 11:15:00,63.2,53.6,30.35,SE,135,1.1,1.1,71,0.00,,,0.00,WUHU216HW,2013-08-24 15:15:00,
2013-08-24 11:20:00,63.4,51.8,30.35,ESE,113,0.6,1.1,66,0.00,,,0.00,WUHU216HW,2013-08-24 15:20:00,
2013-08-24 11:25:00,63.9,52.8,30.35,SSW,203,0.0,1.1,67,0.00,,,0.00,WUHU216HW,2013-08-24 15:25:00,
2013-08-24 11:30:00,64.6,52.1,30.35,SSW,203,0.4,1.1,64,0.00,,,0.00,WUHU216HW,2013-08-24 15:30:00,
2013-08-24 11:35:00,65.2,51.8,30.35,WNW,293,0.4,0.4,62,0.00,,,0.00,WUHU216HW,2013-08-24 15:35:00,
2013-08-24 11:40:00,65.3,52.8,30.35,North,0,0.4,1.1,64,0.00,,,0.00,WUHU216HW,2013-08-24 15:40:00,
2013-08-24 11:45:00,65.9,53.7,30.35,North,0,0.0,1.1,65,0.00,,,0.00,WUHU216HW,2013-08-24 15:45:00,
2013-08-24 11:50:00,66.1,53.1,30.35,NNE,23,1.0,1.8,63,0.00,,,0.00,WUHU216HW,2013-08-24 15:50:00,
2013-08-24 11:55:00,66.1,52.7,30.35,West,270,1.6,2.9,62,0.00,,,0.00,WUHU216HW,2013-08-24 15:55:00,
2013-08-24 12:00:00,66.4,53.5,30.35,NNW,338,0.7,2.9,63,0.00,,,0.00,WUHU216HW,2013-08-24 16:00:00,
2013-08-24 12:05:00,67.1,53.6,30.35,West,270,1.0,1.1,62,0.00,,,0.00,WUHU216HW,2013-08-24 16:05:00,
2013-08-24 12:10:00,67.7,54.2,30.35,NNW,338,0.0,1.1,62,0.00,,,0.00,WUHU216HW,2013-08-24 16:10:00,
2013-08-24 12:15:00,68.0,53.6,30.35,WNW,293,1.8,1.8,60,0.00,,,0.00,WUHU216HW,2013-08-24 16:15:00,
2013-08-24 12:20:00,68.4,54.5,30.35,WNW,293,0.2,1.8,61,0.00,,,0.00,WUHU216HW,2013-08-24 16:20:00,
2013-08-24 12:25:00,68.6,54.2,30.35,North,0,0.0,1.8,60,0.00,,,0.00,WUHU216HW,2013-08-24 16:25:00,
2013-08-24 12:30:00,68.9,54.5,30.35,NNW,338,0.4,0.9,60,0.00,,,0.00,WUHU216HW,2013-08-24 16:30:00,
2013-08-24 12:35:00,68.9,53.6,30.35,NE,45,1.3,1.8,58,0.00,,,0.00,WUHU216HW,2013-08-24 16:35:00,
2013-08-24 12:40:00,69.1,54.2,30.34,NNE,23,0.9,1.8,59,0.00,,,0.00,WUHU216HW,2013-08-24 16:40:00,
2013-08-24 12:45:00,68.6,52.2,30.34,SSE,158,0.7,2.9,56,0.00,,,0.00,WUHU216HW,2013-08-24 16:45:00,
2013-08-24 12:50:00,69.1,55.2,30.34,SE,135,0.6,2.9,61,0.00,,,0.00,WUHU216HW,2013-08-24 16:50:00,
2013-08-24 12:54:00,70.2,55.3,30.34,SE,135,1.7,1.8,59,0.00,,,0.00,WUHU216HW,2013-08-24 16:54:00,
2013-08-24 12:59:00,70.4,54.9,30.34,SE,135,0.8,1.8,58,0.00,,,0.00,WUHU216HW,2013-08-24 16:59:00,
2013-08-24 13:04:00,70.4,53.9,30.34,ENE,68,0.7,1.1,56,0.00,,,0.00,WUHU216HW,2013-08-24 17:04:00,
2013-08-24 13:09:00,70.2,51.8,30.34,WSW,248,2.9,2.9,52,0.00,,,0.00,WUHU216HW,2013-08-24 17:09:00,
2013-08-24 13:14:00,70.6,54.5,30.34,North,0,0.4,2.9,57,0.00,,,0.00,WUHU216HW,2013-08-24 17:14:00,
2013-08-24 13:19:00,70.9,54.9,30.34,ENE,68,1.1,1.1,57,0.00,,,0.00,WUHU216HW,2013-08-24 17:19:00,
2013-08-24 13:24:00,71.5,54.4,30.34,ESE,113,0.4,1.8,55,0.00,,,0.00,WUHU216HW,2013-08-24 17:24:00,
2013-08-24 13:29:00,72.0,54.4,30.34,SSE,158,0.7,1.8,54,0.00,,,0.00,WUHU216HW,2013-08-24 17:29:00,
2013-08-24 13:34:00,72.4,54.2,30.34,West,270,0.0,1.6,53,0.00,,,0.00,WUHU216HW,2013-08-24 17:34:00,
2013-08-24 13:39:00,72.7,55.5,30.34,WNW,293,0.0,1.6,55,0.00,,,0.00,WUHU216HW,2013-08-24 17:39:00,
2013-08-24 13:44:00,73.1,54.8,30.34,SW,225,0.4,0.4,53,0.00,,,0.00,WUHU216HW,2013-08-24 17:44:00,
2013-08-24 13:49:00,72.7,53.0,30.34,SW,225,0.7,1.1,50,0.00,,,0.00,WUHU216HW,2013-08-24 17:49:00,
2013-08-24 13:54:00,72.5,52.2,30.34,WSW,248,0.2,1.1,49,0.00,,,0.00,WUHU216HW,2013-08-24 17:54:00,
2013-08-24 13:59:00,72.9,51.9,30.34,NNW,338,0.8,1.1,48,0.00,,,0.00,WUHU216HW,2013-08-24 17:59:00,
2013-08-24 14:04:00,73.1,52.1,30.34,North,0,0.7,1.6,48,0.00,,,0.00,WUHU216HW,2013-08-24 18:04:00,
2013-08-24 14:09:00,73.1,51.6,30.34,NNE,23,1.1,1.6,47,0.00,,,0.00,WUHU216HW,2013-08-24 18:09:00,
2013-08-24 14:14:00,73.6,53.2,30.34,North,0,0.4,1.1,49,0.00,,,0.00,WUHU216HW,2013-08-24 18:14:00,
2013-08-24 14:19:00,74.0,53.0,30.33,NNW,338,1.0,1.3,48,0.00,,,0.00,WUHU216HW,2013-08-24 18:19:00,
2013-08-24 14:24:00,73.8,51.6,30.33,SE,135,1.6,1.6,46,0.00,,,0.00,WUHU216HW,2013-08-24 18:24:00,
2013-08-24 14:29:00,73.6,50.2,30.33,SSW,203,0.7,1.6,44,0.00,,,0.00,WUHU216HW,2013-08-24 18:29:00,
2013-08-24 14:34:00,74.0,53.0,30.33,North,0,0.6,1.6,48,0.00,,,0.00,WUHU216HW,2013-08-24 18:34:00,
2013-08-24 14:39:00,74.5,51.7,30.33,South,180,1.1,1.1,45,0.00,,,0.00,WUHU216HW,2013-08-24 18:39:00,
2013-08-24 14:44:00,74.5,49.3,30.33,SSW,203,0.0,2.2,41,0.00,,,0.00,WUHU216HW,2013-08-24 18:44:00,
2013-08-24 14:49:00,74.2,51.4,30.33,SSW,203,0.4,2.2,45,0.00,,,0.00,WUHU216HW,2013-08-24 18:49:00,
2013-08-24 14:54:00,74.3,53.4,30.33,NNW,338,0.4,1.6,48,0.00,,,0.00,WUHU216HW,2013-08-24 18:54:00,
2013-08-24 14:59:00,74.3,53.4,30.33,WNW,293,1.1,1.1,48,0.00,,,0.00,WUHU216HW,2013-08-24 18:59:00,
2013-08-24 15:04:00,74.7,54.3,30.33,NW,315,0.8,1.1,49,0.00,,,0.00,WUHU216HW,2013-08-24 19:04:00,
2013-08-24 15:09:00,75.2,54.2,30.32,NW,315,0.0,1.1,48,0.00,,,0.00,WUHU216HW,2013-08-24 19:09:00,
2013-08-24 15:14:00,75.1,54.0,30.32,NW,315,0.9,0.9,48,0.00,,,0.00,WUHU216HW,2013-08-24 19:14:00,
2013-08-24 15:19:00,75.2,53.0,30.32,NW,315,0.4,0.9,46,0.00,,,0.00,WUHU216HW,2013-08-24 19:19:00,
2013-08-24 15:24:00,75.2,53.7,30.32,NNW,338,0.4,1.1,47,0.00,,,0.00,WUHU216HW,2013-08-24 19:24:00,
2013-08-24 15:29:00,75.1,51.6,30.32,NNW,338,1.1,1.1,44,0.00,,,0.00,WUHU216HW,2013-08-24 19:29:00,
2013-08-24 15:34:00,75.1,54.0,30.32,NNW,338,0.8,1.1,48,0.00,,,0.00,WUHU216HW,2013-08-24 19:34:00,
2013-08-24 15:39:00,74.9,52.0,30.33,WNW,293,0.4,1.1,45,0.00,,,0.00,WUHU216HW,2013-08-24 19:39:00,
2013-08-24 15:44:00,74.9,52.0,30.32,WNW,293,0.7,1.3,45,0.00,,,0.00,WUHU216HW,2013-08-24 19:44:00,
2013-08-24 15:49:00,74.7,51.3,30.32,WSW,248,0.4,1.6,44,0.00,,,0.00,WUHU216HW,2013-08-24 19:49:00,
2013-08-24 15:54:00,74.7,51.3,30.32,WSW,248,0.7,1.6,44,0.00,,,0.00,WUHU216HW,2013-08-24 19:54:00,
2013-08-24 15:59:00,74.7,51.3,30.32,South,180,0.4,0.7,44,0.00,,,0.00,WUHU216HW,2013-08-24 19:59:00,
2013-08-24 16:04:00,74.2,49.0,30.32,NE,45,0.0,1.1,41,0.00,,,0.00,WUHU216HW,2013-08-24 20:04:00,
2013-08-24 16:09:00,74.0,48.8,30.32,ENE,68,0.6,1.8,41,0.00,,,0.00,WUHU216HW,2013-08-24 20:09:00,
2013-08-24 16:14:00,74.2,50.8,30.32,ENE,68,0.6,1.8,44,0.00,,,0.00,WUHU216HW,2013-08-24 20:14:00,
2013-08-24 16:19:00,74.2,49.6,30.32,ENE,68,1.1,1.1,42,0.00,,,0.00,WUHU216HW,2013-08-24 20:19:00,
2013-08-24 16:24:00,73.8,50.4,30.32,ENE,68,1.1,1.1,44,0.00,,,0.00,WUHU216HW,2013-08-24 20:24:00,
2013-08-24 16:29:00,73.8,51.0,30.32,ENE,68,1.1,1.1,45,0.00,,,0.00,WUHU216HW,2013-08-24 20:29:00,
2013-08-24 16:34:00,73.6,50.9,30.32,ENE,68,1.0,1.3,45,0.00,,,0.00,WUHU216HW,2013-08-24 20:34:00,
2013-08-24 16:39:00,73.4,50.7,30.32,ENE,68,0.0,1.3,45,0.00,,,0.00,WUHU216HW,2013-08-24 20:39:00,
2013-08-24 16:44:00,73.3,51.1,30.32,ENE,68,0.0,0.2,46,0.00,,,0.00,WUHU216HW,2013-08-24 20:44:00,
2013-08-24 16:49:00,73.1,50.9,30.32,ENE,68,0.0,0.4,46,0.00,,,0.00,WUHU216HW,2013-08-24 20:49:00,
2013-08-24 16:54:00,72.9,50.2,30.32,ENE,68,0.0,1.1,45,0.00,,,0.00,WUHU216HW,2013-08-24 20:54:00,
2013-08-24 16:59:00,72.7,50.1,30.32,ENE,68,0.4,1.1,45,0.00,,,0.00,WUHU216HW,2013-08-24 20:59:00,
2013-08-24 17:04:00,72.7,50.6,30.32,ENE,68,0.4,0.7,46,0.00,,,0.00,WUHU216HW,2013-08-24 21:04:00,
2013-08-24 17:09:00,72.5,50.5,30.32,ENE,68,0.4,0.7,46,0.00,,,0.00,WUHU216HW,2013-08-24 21:09:00,
2013-08-24 17:14:00,72.4,50.9,30.32,ENE,68,0.4,0.7,47,0.00,,,0.00,WUHU216HW,2013-08-24 21:14:00,
2013-08-24 17:19:00,72.2,50.8,30.32,ENE,68,0.4,0.7,47,0.00,,,0.00,WUHU216HW,2013-08-24 21:19:00,
2013-08-24 17:24:00,72.0,50.6,30.32,ENE,68,0.0,0.7,47,0.00,,,0.00,WUHU216HW,2013-08-24 21:24:00,
2013-08-24 17:29:00,71.8,51.0,30.32,ENE,68,0.4,0.7,48,0.00,,,0.00,WUHU216HW,2013-08-24 21:29:00,
2013-08-24 17:34:00,71.6,50.9,30.32,ENE,68,0.0,0.4,48,0.00,,,0.00,WUHU216HW,2013-08-24 21:34:00,
2013-08-24 17:39:00,71.3,50.5,30.32,ENE,68,0.0,0.4,48,0.00,,,0.00,WUHU216HW,2013-08-24 21:39:00,
2013-08-24 17:44:00,71.3,50.5,30.32,ENE,68,0.4,0.4,48,0.00,,,0.00,WUHU216HW,2013-08-24 21:44:00,
2013-08-24 17:49:00,71.1,50.3,30.32,ENE,68,0.0,0.4,48,0.00,,,0.00,WUHU216HW,2013-08-24 21:49:00,
2013-08-24 17:54:00,70.9,50.8,30.32,ENE,68,0.0,0.4,49,0.00,,,0.00,WUHU216HW,2013-08-24 21:54:00,
2013-08-24 17:59:00,70.7,50.6,30.32,ENE,68,0.0,0.0,49,0.00,,,0.00,WUHU216HW,2013-08-24 21:59:00,
2013-08-24 18:04:00,70.6,51.0,30.32,ENE,68,0.0,0.0,50,0.00,,,0.00,WUHU216HW,2013-08-24 22:04:00,
2013-08-24 18:09:00,70.6,51.0,30.32,ENE,68,0.0,0.0,50,0.00,,,0.00,WUHU216HW,2013-08-24 22:09:00,
2013-08-24 18:14:00,70.2,50.8,30.32,ENE,68,0.0,0.0,50,0.00,,,0.00,WUHU216HW,2013-08-24 22:14:00,
2013-08-24 18:19:00,70.2,50.8,30.32,ENE,68,0.0,0.0,50,0.00,,,0.00,WUHU216HW,2013-08-24 22:19:00,
2013-08-24 18:24:00,70.0,51.0,30.32,ENE,68,0.0,0.0,51,0.00,,,0.00,WUHU216HW,2013-08-24 22:24:00,
2013-08-24 18:29:00,69.8,51.0,30.32,ENE,68,0.0,0.0,51,0.00,,,0.00,WUHU216HW,2013-08-24 22:29:00,
2013-08-24 18:34:00,69.7,50.8,30.32,ENE,68,0.0,0.0,51,0.00,,,0.00,WUHU216HW,2013-08-24 22:34:00,
2013-08-24 18:39:00,69.5,50.6,30.32,ENE,68,0.0,0.0,51,0.00,,,0.00,WUHU216HW,2013-08-24 22:39:00,
2013-08-24 18:44:00,69.3,50.0,30.32,ENE,68,0.0,0.0,50,0.00,,,0.00,WUHU216HW,2013-08-24 22:44:00,
2013-08-24 18:49:00,69.1,49.8,30.32,ENE,68,0.0,0.0,50,0.00,,,0.00,WUHU216HW,2013-08-24 22:49:00,
2013-08-24 18:54:00,68.9,50.1,30.32,ENE,68,0.0,0.0,51,0.00,,,0.00,WUHU216HW,2013-08-24 22:54:00,
2013-08-24 18:59:00,68.8,50.4,30.32,ENE,68,0.0,0.0,52,0.00,,,0.00,WUHU216HW,2013-08-24 22:59:00,
2013-08-24 19:04:00,68.6,50.8,30.32,ENE,68,0.0,0.0,53,0.00,,,0.00,WUHU216HW,2013-08-24 23:04:00,
2013-08-24 19:09:00,68.2,50.4,30.33,ENE,68,0.0,0.0,53,0.00,,,0.00,WUHU216HW,2013-08-24 23:09:00,
2013-08-24 19:14:00,68.0,50.2,30.33,ENE,68,0.0,0.0,53,0.00,,,0.00,WUHU216HW,2013-08-24 23:14:00,
2013-08-24 19:19:00,67.7,50.4,30.33,ENE,68,0.9,1.1,54,0.00,,,0.00,WUHU216HW,2013-08-24 23:19:00,
2013-08-24 19:24:00,67.5,50.8,30.33,WSW,248,0.9,1.1,55,0.00,,,0.00,WUHU216HW,2013-08-24 23:24:00,
2013-08-24 19:29:00,67.3,51.0,30.33,SW,225,1.6,1.6,56,0.00,,,0.00,WUHU216HW,2013-08-24 23:29:00,
2013-08-24 19:34:00,67.0,51.2,30.33,West,270,1.8,1.8,57,0.00,,,0.00,WUHU216HW,2013-08-24 23:34:00,
2013-08-24 19:39:00,66.6,51.4,30.34,SW,225,2.2,2.5,58,0.00,,,0.00,WUHU216HW,2013-08-24 23:39:00,
2013-08-24 19:44:00,66.4,51.7,30.34,SW,225,1.1,2.5,59,0.00,,,0.00,WUHU216HW,2013-08-24 23:44:00,
2013-08-24 19:49:00,66.1,51.4,30.34,WSW,248,1.1,1.8,59,0.00,,,0.00,WUHU216HW,2013-08-24 23:49:00,
2013-08-24 19:54:00,65.7,51.5,30.34,WSW,248,1.8,2.0,60,0.00,,,0.00,WUHU216HW,2013-08-24 23:54:00,
2013-08-24 19:59:00,65.5,51.3,30.34,WSW,248,1.6,2.0,60,0.00,,,0.00,WUHU216HW,2013-08-24 23:59:00,
2013-08-24 20:04:00,65.3,51.1,30.34,WSW,248,2.0,2.0,60,0.00,,,0.00,WUHU216HW,2013-08-25 00:04:00,
2013-08-24 20:09:00,65.2,51.4,30.34,WSW,248,1.2,2.0,61,0.00,,,0.00,WUHU216HW,2013-08-25 00:09:00,
2013-08-24 20:14:00,64.8,51.0,30.34,WSW,248,1.3,2.0,61,0.00,,,0.00,WUHU216HW,2013-08-25 00:14:00,
2013-08-24 20:19:00,64.6,50.9,30.34,SW,225,1.6,1.8,61,0.00,,,0.00,WUHU216HW,2013-08-25 00:19:00,
2013-08-24 20:24:00,64.4,51.1,30.34,SW,225,1.8,1.8,62,0.00,,,0.00,WUHU216HW,2013-08-25 00:24:00,
2013-08-24 20:29:00,64.1,51.2,30.34,WSW,248,1.8,1.8,63,0.00,,,0.00,WUHU216HW,2013-08-25 00:29:00,
2013-08-24 20:34:00,63.9,51.0,30.35,WSW,248,1.8,1.8,63,0.00,,,0.00,WUHU216HW,2013-08-25 00:34:00,
2013-08-24 20:39:00,63.4,51.0,30.35,WSW,248,2.7,2.7,64,0.00,,,0.00,WUHU216HW,2013-08-25 00:39:00,
2013-08-24 20:44:00,63.2,50.8,30.35,WSW,248,2.9,2.9,64,0.00,,,0.00,WUHU216HW,2013-08-25 00:44:00,
2013-08-24 20:49:00,62.6,50.7,30.35,WSW,248,3.4,3.4,65,0.00,,,0.00,WUHU216HW,2013-08-25 00:49:00,
2013-08-24 20:55:00,62.3,50.8,30.35,WSW,248,2.2,3.4,66,0.00,,,0.00,WUHU216HW,2013-08-25 00:55:00,
2013-08-24 21:00:00,61.6,50.5,30.35,South,180,2.0,2.5,67,0.00,,,0.00,WUHU216HW,2013-08-25 01:00:00,
2013-08-24 21:05:00,61.0,50.0,30.35,West,270,1.8,2.2,67,0.00,,,0.00,WUHU216HW,2013-08-25 01:05:00,
2013-08-24 21:10:00,60.7,50.1,30.35,WSW,248,2.5,3.8,68,0.00,,,0.00,WUHU216HW,2013-08-25 01:10:00,
2013-08-24 21:42:00,59.4,50.0,30.36,West,270,1.8,1.8,71,0.00,,,0.00,WUHU216HW,2013-08-25 01:42:00,
2013-08-24 21:47:00,59.4,50.0,30.36,WNW,293,2.5,2.5,71,0.00,,,0.00,WUHU216HW,2013-08-25 01:47:00,
2013-08-24 21:52:00,59.2,50.2,30.36,SW,225,2.2,2.5,72,0.00,,,0.00,WUHU216HW,2013-08-25 01:52:00,
2013-08-24 21:57:00,59.0,50.0,30.36,SW,225,2.0,2.5,72,0.00,,,0.00,WUHU216HW,2013-08-25 01:57:00,
2013-08-24 22:02:00,58.9,49.9,30.36,WSW,248,2.2,2.2,72,0.00,,,0.00,WUHU216HW,2013-08-25 02:02:00,
2013-08-24 22:07:00,58.7,50.0,30.37,SW,225,2.2,2.7,73,0.00,,,0.00,WUHU216HW,2013-08-25 02:07:00,
2013-08-24 22:12:00,58.5,49.9,30.37,WSW,248,2.5,2.7,73,0.00,,,0.00,WUHU216HW,2013-08-25 02:12:00,
2013-08-24 22:17:00,58.1,49.9,30.37,SW,235,2.3,2.5,74,0.00,,,0.00,WUHU216HW,2013-08-25 02:17:00,
2013-08-24 22:22:00,58.0,49.7,30.37,WSW,246,1.7,2.5,74,0.00,,,0.00,WUHU216HW,2013-08-25 02:22:00,
2013-08-24 22:27:00,57.8,50.2,30.37,SSW,203,1.6,2.5,76,0.00,,,0.00,WUHU216HW,2013-08-25 02:27:00,
2013-08-24 22:32:00,57.6,50.0,30.37,WSW,248,2.5,3.4,76,0.00,,,0.00,WUHU216HW,2013-08-25 02:32:00,
2013-08-24 22:37:00,57.4,49.9,30.37,WNW,293,2.2,3.4,76,0.00,,,0.00,WUHU216HW,2013-08-25 02:37:00,
2013-08-24 22:42:00,57.2,49.7,30.37,SW,225,2.7,2.7,76,0.00,,,0.00,WUHU216HW,2013-08-25 02:42:00,
2013-08-24 22:47:00,57.1,49.5,30.37,West,270,2.2,2.7,76,0.00,,,0.00,WUHU216HW,2013-08-25 02:47:00,
2013-08-24 22:52:00,56.9,49.3,30.37,SW,225,1.9,2.2,76,0.00,,,0.00,WUHU216HW,2013-08-25 02:52:00,
2013-08-24 22:57:00,56.7,49.5,30.37,WSW,239,1.7,2.5,77,0.00,,,0.00,WUHU216HW,2013-08-25 02:57:00,
2013-08-24 23:01:00,56.3,49.5,30.37,SW,225,2.0,2.5,78,0.00,,,0.00,WUHU216HW,2013-08-25 03:01:00,
2013-08-24 23:07:00,56.2,49.3,30.37,SW,234,2.0,2.5,78,0.00,,,0.00,WUHU216HW,2013-08-25 03:07:00,
2013-08-24 23:11:00,56.0,49.5,30.37,WSW,248,2.5,2.5,79,0.00,,,0.00,WUHU216HW,2013-08-25 03:11:00,
2013-08-24 23:16:00,55.8,49.3,30.37,SW,225,1.3,2.5,79,0.00,,,0.00,WUHU216HW,2013-08-25 03:16:00,
2013-08-24 23:21:00,55.8,49.0,30.37,SW,229,1.5,2.0,78,0.00,,,0.00,WUHU216HW,2013-08-25 03:21:00,
2013-08-24 23:26:00,55.8,49.0,30.37,WSW,248,1.7,2.9,78,0.00,,,0.00,WUHU216HW,2013-08-25 03:26:00,
2013-08-24 23:31:00,55.6,49.1,30.37,SW,236,2.3,2.9,79,0.00,,,0.00,WUHU216HW,2013-08-25 03:31:00,
2013-08-24 23:36:00,55.6,49.1,30.37,SW,225,2.9,2.9,79,0.00,,,0.00,WUHU216HW,2013-08-25 03:36:00,
2013-08-24 23:41:00,55.4,48.6,30.37,SW,225,3.4,4.5,78,0.00,,,0.00,WUHU216HW,2013-08-25 03:41:00,
2013-08-24 23:46:00,55.4,49.0,30.36,SSW,203,1.3,4.5,79,0.00,,,0.00,WUHU216HW,2013-08-25 03:46:00,
2013-08-24 23:51:00,55.1,48.3,30.36,SW,225,1.3,2.2,78,0.00,,,0.00,WUHU216HW,2013-08-25 03:51:00,
2013-08-24 23:56:00,55.1,48.3,30.36,SW,215,1.8,2.2,78,0.00,,,0.00,WUHU216HW,2013-08-25 03:56:00,